Notices

Please take our survey and provide feedback: https://eccc.sondage-survey.ca/f/LanguageSelection.aspx?s=442ca660-fcf1-47c0-95a9-59707d6fd709

Please note that for the Engineering Climate Datasets, IDF dataset is available through this link.  Intensity-Duration-Frequency (IDF) Files: Includes the latest version of short-duration rainfall Intensity-Duration-Frequency (IDF) statistics in the form of tables and graphs with accompanying documentation for various locations across Canada.  Current IDF files can be accessed through our station finder application or downloaded for each province and territory across Canada.  In addition, historical versions of IDF files are also available for download.  Updates of IDF files are provided approximately every two years depending on the availability of data.   Thank you for your patience as we enhance our systems.

Hourly Data Report for October 29, 2018

CORAL HARBOUR A
NUNAVUT
Current Station Operator: NAVCAN

64°11'36.000" N
83°21'34.000" W
62.20 m
2301002
71915
YZS

Download Data

Hourly Data (October 2018)
Hourly Data Report for October 29, 2018
TIME
LST
Temp Definition
°C
Dew Point Definition
°C
Rel Hum Definition
%
Precip. Amount Definition
mm

Wind Dir Definition
10's deg

Wind Spd Definition
km/h
Visibility Definition
km
Stn Press Definition
kPa
Hmdx Definition


Wind Chill Definition


Weather Definition


00:00 -1.0 -1.3 98   11 10 0.2 100.58   -5 Freezing Fog
01:00 -0.9 -1.1 98   10 8 0.2 100.61   -4 Freezing Fog
02:00 -0.8 -1.1 98   10 9 0.2 100.63   -4 Freezing Fog
03:00 -0.9 -1.1 98   10 10 0.2 100.63   -4 Freezing Fog
04:00 -0.9 -1.2 98   10 14 0.4 100.63   -5 Snow,Freezing Fog
05:00 -1.0 -1.2 98   9 18 0.4 100.64   -6 Snow,Freezing Fog
06:00 -0.8 -1.1 98   10 17 0.4 100.67   -6 Snow,Freezing Fog
07:00 -0.8 -1.1 98   9 21 0.2 100.68   -6 Snow,Freezing Fog
08:00 -0.9 -1.1 98   9 22 0.2 100.67   -7 Freezing Fog
09:00 -0.9 -1.1 98   10 20 0.4 100.67   -6 Freezing Fog
10:00 -1.0 -1.3 98   10 22 9.7 100.68   -7 Fog
11:00 -0.9 -1.1 98   10 22 24.1 100.70   -7 Snow Grains
12:00 -0.8 -1.0 98   10 21 24.1 100.70   -6 Snow Grains
13:00 -0.8 -1.0 98   10 26 9.7 100.71   -7 Snow Grains,Fog
14:00 -0.8 -1.1 98   11 25 6.4 100.73   -7 Snow Grains,Fog
15:00 -1.1 -1.4 98   12 23 6.4 100.73   -7 Snow Grains,Fog
16:00 -1.4 -1.7 98   12 21 3.2 100.76   -7 Snow,Snow Grains,Fog
17:00 -1.8 -2.1 98   11 25 3.2 100.79   -8 Snow,Snow Grains,Fog
18:00 -2.0 -2.4 97   10 22 6.4 100.82   -8 Snow
19:00 -2.3 -2.7 97   10 29 9.7 100.83   -9 Snow
20:00 -2.4 -2.8 97   10 23 9.7 100.84   -9 Snow
21:00 -2.5 -2.8 97   11 25 9.7 100.84   -9 Snow
22:00 -2.7 -3.1 97   11 29 9.7 100.82   -10 Snow
23:00 -2.9 -3.3 97   11 28 9.7 100.82   -10 Snow,Blowing Snow

Notes on Data Quality.

Legend

  • E = Estimated
  • M = Missing
  • NA = Not Available*
  • [empty] = Indicates an unobserved value
Date modified: